DECAYED

STARLINK-1510, 45784 (Decayed)

Orbit data source: Space-Track

STARLINK-1510, 45784 was a payload satellite owned by SpaceX/Seattle (US) in LEO that was launched on Sat, 13 Jun 2020 UTC via an FALCON 9 launch vehicle from the Air Force Eastern Test Range (AFETR). Payload-class satellites include a variety of spacecraft equipped with specific instruments for various scientific and technological missions. These include communications satellites like Starlink; space stations such as the ISS; scientific satellites like the Hubble; Earth observation satellites from companies like Planet Labs, Umbra, and HawkEye 360; GPS; miniature CubeSats for education and research; and military/defense satellites.

Not visible in the next 10 days
Identifier
45784, 2020-038BG
Orbit
Decayed
Country
Flag of USUS
Related business
Manufacturer
SpaceX/Seattle
Mission
Decayed Commercial Communications
Bus & Motor
STARLINK, Unknown motor
Mass
260 kg wet, ~248 kg dry
Launch date (UTC)
2020-06-13 (6 years ago)
Launch vehicle
FALCON 9
Launch site
Air Force Eastern Test Range (AFETR)
Object type
Payload
Rocket body
Debris
Shape & HBR
Box + 1 Pan, 10.1 m
Radar Cross Section
13.562 m², Large (>1 m²)

Expand to show TLE details & history
Last TLE update: 8 months ago

TLE from 8 months ago
0 STARLINK-1510
1 45784U 20038BG  26006.19799308  .13172089  12544-4  21728-3 0  9995
2 45784  53.0098 358.8647 0002578 176.1587 183.9483 16.48076437308994
Epoch: 2026-01-06T04:45Z
TLE epoch observation values (Epoch: 2026-01-06T04:45:06.602Z)
Latitude
0.00002°
Longitude
-178.19704°
Altitude
147.011 km
Speed
7.818 km/s
True Right ascension
23h 55m 27s
True Declination
0° 00' 00"
Sunlit
Object was in daylight at epoch
Visualization orbit readout
Latitude
Unknown
Longitude
Unknown
Altitude
Unknown
Speed
Unknown
Apparent Right ascension
Unknown
Apparent Declination
Unknown
Sunlit
N/A
Visualization observer readout
Local Sidereal Time
09:53:53
Azimuth
Unknown
Elevation
Unknown
Doppler factor
Unknown
Orbital elements
Apogee altitude
146.382 km
Perigee altitude
143.019 km
Semi-major axis
6,522.837 km
Eccentricity
0.00026
Inclination
53.0098°
RAAN
358.8647°
Arg. of periapsis
176.1587°
True anomaly
183.94627°
Mean anomaly
183.9483°
Eccentric anomaly
183.94728°
Mean motion
4.11992 °/min
Orbital period
87.38 mins
BSTAR
0.00021728
Loading maneuver chart data...
Computing Atmospheric mass density...

Documentation

Showing up to 5 results
|